Find Starlink 34267

NORAD ID: 65080 Int'l Des: 2025-167 Owner: SPXS Country: US Constellation: starlink operational
LEOCIRCULAR

現在のビュー

3D地球を読み込み中...

Starlink 34267について

説明を読み込み中...

次回通過

Passes for default location (London). Set your location on the main map for personalized predictions.

高度履歴

Loading altitude history...

軌道要素

1 65080U 25167C 26146.36408414 .00026628 00000-0 79641-3 0 9993
2 65080 53.1605 22.9737 0001414 90.0761 270.0404 15.34400390 46639
Epoch: May 26, 2026 • Age: 14 hours

現在のステータス

高度 465.1 km
速度 7.63 km/s
衛星直下点 -8.24°S, 148.09°E
打ち上げ日 Aug 4, 2025
運用期間 0.8 years
タイプ internet

技術仕様

分類 Payload
質量 575.00 kg
乾燥質量 530.00 kg
総質量 575.00 kg
長さ 0.30 m
直径 4.10 m
スパン 29.00 m
形状 Box + pan
製造者 SPXS
バスタイプ Starlink V2MO
フェーズステータス In Orbit
所有者/国 SPXS/US

Most Searched